INTELSAT 33E DEB, 64396

Orbit data source: Space-Track

INTELSAT 33E DEB, 64396 is space debris in GEO originally from a launch on Wed, 24 Aug 2016 UTC launched from the French Guiana (FRGUI). Debris objects in space refer to the collection of defunct objects orbiting the Earth. Examples of debris include non-operational satellites, rocket bodies, and fragments generated from explosions, collisions, or faulty payload assembly.

Not visible in the next 10 days
Identifier
64396, 2016-053AA
Orbit
GEO
Country
Flag of USUS / ITSO
Related business
Manufacturer
Boeing/ES
Mission
Spacecraft
Bus & Motor
Unknown
Mass
Unknown
Launch date (UTC)
2016-08-24 (10 years ago)
Launch vehicle
Unknown
Launch site
French Guiana (FRGUI)
Object type
Payload
Rocket body
Debris
Shape & HBR
Unknown shape, 1.1 m
Radar Cross Section
RCS unknown

Expand to show TLE details & history
Last TLE update: 8 hours ago

TLE from 8 hours ago
0 INTELSAT 33E DEB
1 64396U 16053AA  26166.34719862  .00000056  00000-0  00000+0 0  9994
2 64396   1.5738  82.4957 0121101  58.5600 301.6020  0.98612734  5961
Epoch: 2026-06-15T08:19Z
TLE epoch observation values (Epoch: 2026-06-15T08:19:57.960Z)
Latitude
Longitude
52.85029°
Altitude
35,990.079 km
Speed
3.077 km/s
True Right ascension
05h 25m 54s
True Declination
0° 00' 00"
Sunlit
Object was in daylight at epoch
Visualization orbit readout
Latitude
Unknown
Longitude
Unknown
Altitude
Unknown
Speed
Unknown
Apparent Right ascension
Unknown
Apparent Declination
Unknown
Sunlit
N/A
Visualization observer readout
Local Sidereal Time
02:32:05
Azimuth
Unknown
Elevation
Unknown
Doppler factor
Unknown
Orbital elements
Apogee altitude
36,775.597 km
Perigee altitude
35,742.911 km
Semi-major axis
42,637.391 km
Eccentricity
0.01211
Inclination
1.5738°
RAAN
82.4957°
Arg. of periapsis
58.56°
True anomaly
300.41071°
Mean anomaly
301.602°
Eccentric anomaly
301.00729°
Mean motion
0.24652 °/min
Orbital period
1,460.31 mins
BSTAR
0
Loading maneuver chart data...
Computing Atmospheric mass density...
Loading historical data...
Loading historical data...
Loading historical data...
Loading historical data...
Loading historical data...
Loading historical data...
Loading historical data...

Documentation

Showing up to 5 results
|